NOAA 16 DEB, 41297

Orbit data source: Space-Track

NOAA 16 DEB, 41297 is space debris in SSO originally from a launch on Thu, 21 Sep 2000 UTC launched from the Air Force Western Test Range (AFWTR). Debris objects in space refer to the collection of defunct objects orbiting the Earth. Examples of debris include non-operational satellites, rocket bodies, and fragments generated from explosions, collisions, or faulty payload assembly.

Loading next visibility...
Identifier
41297, 2000-055GZ
Orbit
SSO
Country
Flag of USUS
Related business
Manufacturer
Unknown
Mission
Spacecraft
Bus & Motor
Unknown
Mass
Unknown
Launch date (UTC)
2000-09-21 (25 years ago)
Launch vehicle
Unknown
Launch site
Air Force Western Test Range (AFWTR)
Object type
Payload
Rocket body
Debris
Shape & HBR
Unknown shape, 0.1 m
Radar Cross Section
Small (<0.1 m²)

Expand to show TLE details & history
Last TLE update: 2 days ago

TLE from 2 days ago
0 NOAA 16 DEB
1 41297U 00055GZ  25348.95365088  .00003834  00000-0  19819-2 0  9997
2 41297  98.9616  47.7400 0064511 214.9464 144.7466 14.14505562509967
Epoch: 2025-12-14T22:53Z
TLE epoch observation values (Epoch: 2025-12-14T22:53:15.436Z)
Latitude
-0.00001°
Longitude
-19.43348°
Altitude
885.047 km
Speed
7.39 km/s
True Right ascension
03h 10m 57s
True Declination
0° 00' 00"
Sunlit
Object was in full shadow at epoch
Visualization orbit readout
Latitude
Unknown
Longitude
Unknown
Altitude
Unknown
Speed
Unknown
Apparent Right ascension
Unknown
Apparent Declination
Unknown
Sunlit
N/A
Visualization observer readout
Local Sidereal Time
12:12:53
Azimuth
Unknown
Elevation
Unknown
Doppler factor
Unknown
Orbital elements
Apogee altitude
887.745 km
Perigee altitude
794.6 km
Semi-major axis
7,219.31 km
Eccentricity
0.00645
Inclination
98.9616°
RAAN
47.74°
Arg. of periapsis
214.9464°
True anomaly
145.17049°
Mean anomaly
144.7466°
Eccentric anomaly
144.95882°
Mean motion
3.53834 °/min
Orbital period
101.74 mins
BSTAR
0.0019819
Loading maneuver chart data...
Computing Atmospheric mass density...
Loading historical data...
Loading historical data...
Loading historical data...
Loading historical data...
Loading historical data...
Loading historical data...
Loading historical data...

Documentation

Showing up to 5 results
|